sat.trackr.live / text

‹ back to catalog

COSMOS 1989 (ETALON 1)

NORAD 19751 · 1989-001C

PAYLOAD ACTIVE UNKNOWN

§ Identity

Operator
Country
CIS
Launch date
1989-01-10
Launch site
TYMSC
Launch vehicle
Mass (kg)
RCS (m²)
1.26

Purposes: science

External: N2YO · Heavens-Above · Gunter

§ Orbital elements

Epoch: 2026-09-14T19:11:19.225248Z

Period
675.56 min
Inclination
65.0027°
Eccentricity
0.0023409
Mean motion
2.13156053 rev/d
Perigee alt
19,065.9 km
Apogee alt
19,185.3 km
Semi-major
25,503.7 km
B*
0.0000e+0
RAAN
69.1337°
Arg perigee
217.3910°
Mean anomaly
112.3595°
Rev number
29,327

§ Raw data

COSMOS 1989 (ETALON 1)1 19751U 89001C   26257.79952807 -.00000011  00000+0  00000+0 0  99912 19751  65.0027  69.1337 0023409 217.3910 112.3595  2.13156053293270

JSON: /api/v1/satellites/19751 · /tle

For live sub-satellite position, see the globe view (requires WebGL).

§ Visibility from observer

Set your observer location to see the next 7 days of passes ≥ 10°. The values pass through the URL so the page stays shareable.

No JS? Fill the form by hand. The geolocation button needs JavaScript.